Main page
METAR-TAF:

METAR-TAF

Airports :

Coffeyville Municipal Airport

Coffeyville, Kansas, United States

latitude: 37-05-28N, longitude: 095-33-59W, elevation: 751 ft

Current weather observation

The report was made 39 minutes ago, at 03:52 UTC
Wind 8 mph from the South/Southeast
Temperature 79°F
Humidity 65%
Pressure 29.95 in. Hg
Visibility: 10 miles
Clear sky

METAR: KCFV 190352Z AUTO 15007KT 10SM CLR 26/19 A2995 RMK AO2 SLP135 T02610194

Time: 23:31 (04:31 UTC)


TAF: missing

Weather observations and forecasts of more than 4000 airports (METAR and TAF reports).

The available stations are represented by yellow and red dots on the map.

Hover mouse over dot to see the name of the station.

Then click to see weather observations and forecasts.

To change the map : click on the green buttons with a black cross to zoom in, on the green button with a dash to zoom out, or on the green arrows for adjacent maps.


METAR-TAF: